| time (UTC) | temp F | wind direction | speed MPH | gust MPH | rain 1hr in | rain 24hr in | rain mn in | humidity % | barometer mb |
| 20260504050542 | 45 | 306 | 0.0 | 4.0 | 0.00 | 0.00 | 0.00 | 69 | 1010.3 |
| 20260504045540 | 44 | 276 | 0.0 | 3.0 | 0.00 | 0.00 | 0.00 | 71 | 1010.3 |
| 20260504045039 | 44 | 86 | 0.0 | 3.0 | 0.00 | 0.00 | 0.00 | 73 | 1010.3 |
| 20260504044540 | 44 | 102 | 0.0 | 3.0 | 0.00 | 0.00 | 0.00 | 73 | 1010.3 |
| 20260504044037 | 44 | 84 | 0.0 | 1.0 | 0.00 | 0.00 | 0.00 | 72 | 1010.5 |
| 20260504043536 | 45 | 84 | 0.0 | 2.0 | 0.00 | 0.00 | 0.00 | 70 | 1010.6 |
| 20260504043036 | 45 | 82 | 0.0 | 2.0 | 0.00 | 0.00 | 0.00 | 68 | 1010.8 |
| 20260504042534 | 45 | 316 | 0.0 | 1.0 | 0.00 | 0.00 | 0.00 | 67 | 1011.0 |
| 20260504042032 | 45 | 316 | 0.0 | 3.0 | 0.00 | 0.00 | 0.00 | 67 | 1011.0 |
| 20260504041532 | 45 | 316 | 0.0 | 3.0 | 0.00 | 0.00 | 0.00 | 67 | 1011.0 |
| 20260504041031 | 45 | 316 | 0.0 | 2.0 | 0.00 | 0.00 | 0.00 | 67 | 1011.0 |
| 20260504040533 | 45 | 316 | 0.0 | 4.0 | 0.00 | 0.00 | 0.00 | 66 | 1011.0 |
| 20260504040048 | 45 | 303 | 1.0 | 4.0 | 0.00 | 0.00 | 0.00 | 66 | 1011.0 |
| 20260504035530 | 45 | 290 | 1.0 | 5.0 | 0.00 | 0.00 | 0.00 | 65 | 1011.0 |
| 20260504035029 | 46 | 304 | 0.0 | 7.0 | 0.00 | 0.00 | 0.00 | 65 | 1011.1 |
| 20260504034530 | 46 | 253 | 3.0 | 9.0 | 0.00 | 0.00 | 0.00 | 63 | 1011.1 |
| 20260504034030 | 46 | 284 | 5.0 | 11.0 | 0.00 | 0.00 | 0.00 | 63 | 1011.0 |
| 20260504033529 | 47 | 340 | 5.0 | 16.0 | 0.00 | 0.00 | 0.00 | 62 | 1011.1 |
| 20260504033028 | 47 | 294 | 10.0 | 16.0 | 0.00 | 0.00 | 0.00 | 61 | 1011.1 |
| 20260504032532 | 47 | 269 | 6.0 | 13.0 | 0.00 | 0.00 | 0.00 | 60 | 1011.1 |
| 20260504032032 | 47 | 310 | 5.0 | 13.0 | 0.00 | 0.00 | 0.00 | 60 | 1011.1 |
| 20260504031528 | 47 | 272 | 7.0 | 14.0 | 0.00 | 0.00 | 0.00 | 60 | 1011.0 |
| 20260504031027 | 47 | 276 | 7.0 | 14.0 | 0.00 | 0.00 | 0.00 | 59 | 1011.0 |
| 20260504030528 | 47 | 311 | 6.0 | 11.0 | 0.00 | 0.00 | 0.00 | 59 | 1011.0 |
| 20260504030027 | 46 | 286 | 4.0 | 7.0 | 0.00 | 0.00 | 0.00 | 59 | 1011.0 |
| 20260504025528 | 46 | 253 | 3.0 | 7.0 | 0.00 | 0.00 | 0.00 | 59 | 1011.0 |
| 20260504025027 | 46 | 260 | 3.0 | 7.0 | 0.00 | 0.00 | 0.00 | 60 | 1010.9 |
| 20260504024527 | 46 | 287 | 2.0 | 6.0 | 0.00 | 0.00 | 0.00 | 60 | 1010.9 |
| 20260504024030 | 45 | 269 | 1.0 | 4.0 | 0.00 | 0.00 | 0.00 | 61 | 1010.9 |
| 20260504023526 | 45 | 254 | 0.0 | 3.0 | 0.00 | 0.00 | 0.00 | 62 | 1010.9 |
| 20260504023025 | 45 | 290 | 1.0 | 4.0 | 0.00 | 0.00 | 0.00 | 63 | 1010.8 |
| 20260504022525 | 44 | 276 | 1.0 | 4.0 | 0.00 | 0.00 | 0.00 | 64 | 1010.8 |
| 20260504022025 | 44 | 256 | 0.0 | 1.0 | 0.00 | 0.00 | 0.00 | 65 | 1010.8 |
| 20260504021525 | 43 | 256 | 0.0 | 1.0 | 0.00 | 0.00 | 0.00 | 65 | 1010.8 |
| 20260504021026 | 43 | 257 | 0.0 | 2.0 | 0.00 | 0.00 | 0.00 | 66 | 1010.9 |
| 20260504020524 | 43 | 256 | 0.0 | 1.0 | 0.00 | 0.00 | 0.00 | 66 | 1010.8 |
| 20260504020024 | 43 | 255 | 0.0 | 0.0 | 0.00 | 0.00 | 0.00 | 66 | 1010.8 |
| 20260504015524 | 43 | 255 | 0.0 | 2.0 | 0.00 | 0.00 | 0.00 | 66 | 1010.8 |
| 20260504015024 | 43 | 250 | 0.0 | 3.0 | 0.00 | 0.00 | 0.00 | 66 | 1010.8 |
| 20260504014526 | 43 | 294 | 0.0 | 3.0 | 0.00 | 0.00 | 0.00 | 67 | 1010.8 |
| 20260504014023 | 43 | 12 | 0.0 | 2.0 | 0.00 | 0.00 | 0.00 | 67 | 1010.9 |
| 20260504013523 | 43 | 297 | 0.0 | 0.0 | 0.00 | 0.00 | 0.00 | 67 | 1010.9 |
| 20260504013022 | 43 | 297 | 0.0 | 0.0 | 0.00 | 0.00 | 0.00 | 66 | 1010.9 |
| 20260504012525 | 43 | 297 | 0.0 | 0.0 | 0.00 | 0.00 | 0.00 | 65 | 1010.9 |
| 20260504012022 | 44 | 297 | 0.0 | 1.0 | 0.00 | 0.00 | 0.00 | 64 | 1010.9 |
| 20260504011522 | 44 | 280 | 0.0 | 1.0 | 0.00 | 0.00 | 0.00 | 65 | 1010.9 |
| 20260504011021 | 43 | 291 | 0.0 | 1.0 | 0.00 | 0.00 | 0.00 | 66 | 1010.8 |
| 20260504010521 | 43 | 292 | 0.0 | 1.0 | 0.00 | 0.00 | 0.00 | 66 | 1010.7 |
| 20260504010005 | 43 | 292 | 0.0 | 1.0 | 0.00 | 0.00 | 0.00 | 66 | 1010.7 |
| 20260504005516 | 44 | 292 | 0.0 | 0.0 | 0.00 | 0.00 | 0.00 | 65 | 1010.6 |
| 20260504005015 | 44 | 292 | 0.0 | 1.0 | 0.00 | 0.00 | 0.00 | 64 | 1010.5 |
| 20260504004538 | 44 | 290 | 0.0 | 2.0 | 0.00 | 0.00 | 0.00 | 63 | 1010.6 |
| 20260504004011 | 45 | 290 | 0.0 | 2.0 | 0.00 | 0.00 | 0.00 | 61 | 1010.5 |
| 20260504003522 | 46 | 292 | 0.0 | 2.0 | 0.00 | 0.00 | 0.00 | 60 | 1010.5 |
| 20260504003010 | 46 | 284 | 0.0 | 2.0 | 0.00 | 0.00 | 0.00 | 60 | 1010.5 |
| 20260504002519 | 46 | 309 | 0.0 | 3.0 | 0.00 | 0.00 | 0.00 | 59 | 1010.4 |
| 20260504002005 | 46 | 297 | 0.0 | 4.0 | 0.00 | 0.00 | 0.00 | 59 | 1010.4 |
| 20260504001517 | 46 | 303 | 2.0 | 7.0 | 0.00 | 0.00 | 0.00 | 58 | 1010.4 |
| 20260504001017 | 47 | 297 | 3.0 | 8.0 | 0.00 | 0.00 | 0.00 | 58 | 1010.3 |
| 20260504000510 | 47 | 295 | 3.0 | 8.0 | 0.00 | 0.00 | 0.00 | 58 | 1010.3 |
| 20260504000016 | 47 | 295 | 4.0 | 9.0 | 0.00 | 0.00 | 0.00 | 57 | 1010.3 |
| 20260503235528 | 47 | 294 | 4.0 | 10.0 | 0.00 | 0.00 | 0.00 | 57 | 1010.2 |
| 20260503235016 | 47 | 290 | 5.0 | 10.0 | 0.00 | 0.00 | 0.00 | 57 | 1010.3 |
| 20260503234507 | 47 | 302 | 3.0 | 12.0 | 0.00 | 0.00 | 0.00 | 56 | 1010.2 |
| 20260503234010 | 48 | 290 | 7.0 | 15.0 | 0.00 | 0.00 | 0.00 | 55 | 1010.2 |
| 20260503233521 | 48 | 290 | 6.0 | 15.0 | 0.00 | 0.00 | 0.00 | 55 | 1010.2 |
| 20260503233008 | 48 | 317 | 4.0 | 14.0 | 0.00 | 0.00 | 0.00 | 55 | 1010.2 |
| 20260503232518 | 48 | 288 | 7.0 | 22.0 | 0.00 | 0.00 | 0.00 | 54 | 1010.1 |
| 20260503232005 | 48 | 283 | 7.0 | 22.0 | 0.00 | 0.00 | 0.00 | 54 | 1010.2 |
| 20260503231514 | 48 | 312 | 8.0 | 19.0 | 0.00 | 0.00 | 0.00 | 52 | 1010.1 |
| 20260503231016 | 49 | 290 | 12.0 | 19.0 | 0.00 | 0.00 | 0.00 | 51 | 1010.0 |
| 20260503230527 | 49 | 302 | 6.0 | 14.0 | 0.00 | 0.00 | 0.00 | 50 | 1009.9 |
| 20260503230012 | 49 | 290 | 7.0 | 14.0 | 0.00 | 0.00 | 0.00 | 49 | 1009.9 |
| 20260503225525 | 48 | 297 | 8.0 | 12.0 | 0.00 | 0.00 | 0.00 | 49 | 1009.9 |
| 20260503225014 | 49 | 297 | 7.0 | 18.0 | 0.00 | 0.00 | 0.00 | 49 | 1009.9 |
| 20260503224526 | 48 | 288 | 8.0 | 18.0 | 0.00 | 0.00 | 0.00 | 48 | 1009.8 |
| 20260503224012 | 48 | 294 | 10.0 | 17.0 | 0.00 | 0.00 | 0.00 | 47 | 1009.8 |
| 20260503223528 | 49 | 312 | 9.0 | 14.0 | 0.00 | 0.00 | 0.00 | 48 | 1009.8 |
| 20260503223011 | 49 | 307 | 9.0 | 14.0 | 0.00 | 0.00 | 0.00 | 47 | 1009.8 |
| 20260503222522 | 49 | 328 | 5.0 | 11.0 | 0.00 | 0.00 | 0.00 | 47 | 1009.7 |
| 20260503222010 | 49 | 297 | 6.0 | 15.0 | 0.00 | 0.00 | 0.00 | 45 | 1009.7 |
| 20260503221523 | 49 | 290 | 7.0 | 15.0 | 0.00 | 0.00 | 0.00 | 46 | 1009.7 |
| 20260503221011 | 49 | 302 | 7.0 | 18.0 | 0.00 | 0.00 | 0.00 | 44 | 1009.7 |
| 20260503220526 | 49 | 297 | 8.0 | 18.0 | 0.00 | 0.00 | 0.00 | 45 | 1009.7 |
| 20260503220006 | 49 | 279 | 9.0 | 18.0 | 0.00 | 0.00 | 0.00 | 42 | 1009.7 |
| 20260503215520 | 50 | 296 | 9.0 | 14.0 | 0.00 | 0.00 | 0.00 | 42 | 1009.6 |
| 20260503215005 | 50 | 288 | 6.0 | 12.0 | 0.00 | 0.00 | 0.00 | 44 | 1009.5 |
| 20260503214520 | 50 | 294 | 3.0 | 13.0 | 0.00 | 0.00 | 0.00 | 43 | 1009.6 |
| 20260503214006 | 50 | 286 | 7.0 | 19.0 | 0.00 | 0.00 | 0.00 | 41 | 1009.5 |
| 20260503213518 | 50 | 276 | 8.0 | 19.0 | 0.00 | 0.00 | 0.00 | 41 | 1009.6 |
| 20260503213019 | 50 | 201 | 6.0 | 17.0 | 0.00 | 0.00 | 0.00 | 40 | 1009.6 |
| 20260503212526 | 50 | 301 | 8.0 | 15.0 | 0.00 | 0.00 | 0.00 | 41 | 1009.6 |
| 20260503212012 | 50 | 301 | 8.0 | 17.0 | 0.00 | 0.00 | 0.00 | 42 | 1009.5 |
| 20260503211506 | 49 | 295 | 9.0 | 17.0 | 0.00 | 0.00 | 0.00 | 40 | 1009.5 |
| 20260503211016 | 50 | 302 | 4.0 | 16.0 | 0.00 | 0.00 | 0.00 | 41 | 1009.6 |
| 20260503210522 | 50 | 296 | 6.0 | 16.0 | 0.00 | 0.00 | 0.00 | 39 | 1009.5 |
| 20260503210012 | 51 | 318 | 7.0 | 15.0 | 0.00 | 0.00 | 0.00 | 37 | 1009.5 |
| 20260503205522 | 51 | 297 | 9.0 | 15.0 | 0.00 | 0.00 | 0.00 | 37 | 1009.4 |
| 20260503205009 | 51 | 328 | 5.0 | 22.0 | 0.00 | 0.00 | 0.00 | 39 | 1009.4 |
| 20260503204526 | 51 | 301 | 11.0 | 22.0 | 0.00 | 0.00 | 0.00 | 38 | 1009.3 |
| 20260503204007 | 51 | 280 | 13.0 | 19.0 | 0.00 | 0.00 | 0.00 | 36 | 1009.4 |
| 20260503203520 | 50 | 296 | 8.0 | 20.0 | 0.00 | 0.00 | 0.00 | 38 | 1009.5 |
| 20260503203023 | 51 | 238 | 7.0 | 24.0 | 0.00 | 0.00 | 0.00 | 43 | 1009.7 |
| 20260503202512 | 50 | 287 | 16.0 | 24.0 | 0.00 | 0.00 | 0.00 | 39 | 1009.5 |
| 20260503202019 | 50 | 293 | 12.0 | 24.0 | 0.00 | 0.00 | 0.00 | 39 | 1009.6 |
| 20260503201511 | 50 | 294 | 17.0 | 27.0 | 0.00 | 0.00 | 0.00 | 38 | 1009.7 |
| 20260503201019 | 50 | 295 | 12.0 | 20.0 | 0.00 | 0.00 | 0.00 | 39 | 1009.9 |
| 20260503200511 | 50 | 277 | 5.0 | 18.0 | 0.00 | 0.00 | 0.00 | 39 | 1009.8 |
| 20260503200014 | 50 | 297 | 9.0 | 18.0 | 0.00 | 0.00 | 0.00 | 42 | 1009.8 |
| 20260503195526 | 50 | 291 | 3.0 | 17.0 | 0.00 | 0.00 | 0.00 | 42 | 1009.9 |
| 20260503195014 | 50 | 246 | 4.0 | 17.0 | 0.00 | 0.00 | 0.00 | 41 | 1010.1 |
| 20260503194529 | 50 | 314 | 4.0 | 18.0 | 0.00 | 0.00 | 0.00 | 41 | 1010.0 |
| 20260503194011 | 49 | 280 | 4.0 | 12.0 | 0.00 | 0.00 | 0.00 | 47 | 1010.1 |
| 20260503193526 | 49 | 231 | 3.0 | 12.0 | 0.00 | 0.00 | 0.00 | 40 | 1010.1 |
| 20260503193029 | 48 | 295 | 6.0 | 19.0 | 0.00 | 0.00 | 0.00 | 43 | 1010.1 |
| 20260503192520 | 48 | 289 | 13.0 | 19.0 | 0.00 | 0.00 | 0.00 | 42 | 1010.2 |
| 20260503192008 | 48 | 290 | 6.0 | 18.0 | 0.00 | 0.00 | 0.00 | 41 | 1010.5 |
| 20260503191520 | 48 | 319 | 5.0 | 25.0 | 0.00 | 0.00 | 0.00 | 43 | 1010.3 |
| 20260503191008 | 48 | 266 | 10.0 | 25.0 | 0.00 | 0.00 | 0.00 | 40 | 1010.5 |
| 20260503190514 | 48 | 274 | 9.0 | 23.0 | 0.00 | 0.00 | 0.00 | 43 | 1010.4 |
| 20260503190019 | 48 | 278 | 12.0 | 26.0 | 0.00 | 0.00 | 0.00 | 40 | 1010.6 |
| 20260503185511 | 49 | 280 | 16.0 | 26.0 | 0.00 | 0.00 | 0.00 | 42 | 1010.6 |
| 20260503185019 | 49 | 301 | 12.0 | 24.0 | 0.00 | 0.00 | 0.00 | 45 | 1010.4 |
| 20260503184519 | 48 | 300 | 2.0 | 21.0 | 0.00 | 0.00 | 0.00 | 47 | 1010.5 |
| 20260503184014 | 47 | 305 | 13.0 | 21.0 | 0.00 | 0.00 | 0.00 | 46 | 1010.6 |
| 20260503183509 | 48 | 326 | 9.0 | 14.0 | 0.00 | 0.00 | 0.00 | 47 | 1010.6 |
| 20260503183015 | 47 | 252 | 3.0 | 17.0 | 0.00 | 0.00 | 0.00 | 46 | 1010.7 |
| 20260503182509 | 47 | 289 | 7.0 | 17.0 | 0.00 | 0.00 | 0.00 | 51 | 1010.8 |
| 20260503182014 | 46 | 304 | 4.0 | 14.0 | 0.00 | 0.00 | 0.00 | 52 | 1010.7 |
| 20260503181525 | 45 | 287 | 6.0 | 14.0 | 0.00 | 0.00 | 0.00 | 49 | 1010.9 |
| 20260503181012 | 45 | 315 | 8.0 | 14.0 | 0.00 | 0.00 | 0.00 | 50 | 1010.9 |
| 20260503180523 | 45 | 236 | 6.0 | 16.0 | 0.00 | 0.00 | 0.00 | 49 | 1010.9 |
| 20260503180016 | 45 | 317 | 8.0 | 14.0 | 0.00 | 0.00 | 0.00 | 49 | 1011.0 |
| 20260503175518 | 45 | 314 | 7.0 | 14.0 | 0.00 | 0.00 | 0.00 | 48 | 1011.0 |
| 20260503175006 | 45 | 304 | 4.0 | 14.0 | 0.00 | 0.00 | 0.00 | 50 | 1011.2 |
| 20260503174519 | 45 | 295 | 6.0 | 15.0 | 0.00 | 0.00 | 0.00 | 50 | 1011.3 |
| 20260503174019 | 45 | 311 | 6.0 | 17.0 | 0.00 | 0.00 | 0.00 | 50 | 1011.2 |
| 20260503173527 | 45 | 300 | 8.0 | 17.0 | 0.00 | 0.00 | 0.00 | 53 | 1011.3 |
| 20260503173022 | 45 | 287 | 9.0 | 17.0 | 0.00 | 0.00 | 0.00 | 54 | 1011.3 |
| 20260503172529 | 44 | 290 | 10.0 | 18.0 | 0.00 | 0.00 | 0.00 | 55 | 1011.3 |
| 20260503172010 | 43 | 281 | 12.0 | 19.0 | 0.00 | 0.00 | 0.00 | 54 | 1011.3 |
| 20260503171524 | 43 | 295 | 10.0 | 19.0 | 0.00 | 0.00 | 0.00 | 54 | 1011.3 |
| 20260503171010 | 43 | 293 | 9.0 | 17.0 | 0.00 | 0.00 | 0.00 | 55 | 1011.4 |
| 20260503170522 | 43 | 283 | 11.0 | 17.0 | 0.00 | 0.00 | 0.00 | 53 | 1011.5 |
| 20260503150507 | 42 | 315 | 5.0 | 12.0 | 0.00 | 0.00 | 0.00 | 54 | 1011.8 |
| 20260503131014 | 39 | 270 | 7.0 | 13.0 | 0.00 | 0.00 | 0.00 | 66 | 1012.2 |
| 20260503130527 | 39 | 304 | 5.0 | 16.0 | 0.00 | 0.00 | 0.00 | 67 | 1012.2 |
| 20260503110504 | 35 | 288 | 3.0 | 5.0 | 0.00 | 0.00 | 0.00 | 83 | 1011.6 |
| 20260503100109 | 34 | 277 | 0.0 | 4.0 | 0.00 | 0.00 | 0.00 | 82 | 1011.1 |
| 20260503081547 | 34 | 297 | 1.0 | 3.0 | 0.00 | 0.01 | 0.00 | 82 | 1011.3 |
| 20260503081046 | 34 | 293 | 1.0 | 3.0 | 0.00 | 0.01 | 0.00 | 83 | 1011.3 |
| 20260503080545 | 34 | 293 | 0.0 | 3.0 | 0.00 | 0.01 | 0.00 | 83 | 1011.4 |
| 20260503072544 | 34 | 287 | 2.0 | 4.0 | 0.00 | 0.01 | 0.00 | 82 | 1011.4 |
| 20260503072041 | 34 | 298 | 0.0 | 3.0 | 0.00 | 0.01 | 0.00 | 82 | 1011.5 |
| 20260503071540 | 34 | 291 | 0.0 | 3.0 | 0.00 | 0.01 | 0.00 | 83 | 1011.5 |
| 20260503071039 | 34 | 294 | 0.0 | 2.0 | 0.00 | 0.01 | 0.00 | 83 | 1011.6 |
| 20260503070538 | 34 | 291 | 0.0 | 2.0 | 0.00 | 0.01 | 0.00 | 83 | 1011.7 |